"Sample Date","Sample Time","Sample Value","Units","Flow Rate","Sample Interval","Number Channels","Micron Size 0","Counts/Channel 0","Micron Size 1","Counts/Channel 1","Micron Size 2","Counts/Channel 2","Micron Size 3","Counts/Channel 3","Micron Size 4","Counts/Channel 4","Micron Size 5","Counts/Channel 5","Micron Size 6","Counts/Channel 6","Micron Size 7","Counts/Channel 7","Micron Size 8","Counts/Channel 8","Micron Size 9","Counts/Channel 9","Micron Size 10","Counts/Channel 10","Micron Size 11","Counts/Channel 11","Micron Size 12","Counts/Channel 12","Micron Size 13","Counts/Channel 13","Micron Size 14","Counts/Channel 14","Micron Size 15","Counts/Channel 15","Micron Size 16","Counts/Channel 16","Micron Size 17","Counts/Channel 17","Micron Size 18","Counts/Channel 18","Micron Size 19","Counts/Channel 19","Micron Size 20","Counts/Channel 20","Micron Size 21","Counts/Channel 21","Micron Size 22","Counts/Channel 22","Micron Size 23","Counts/Channel 23","Micron Size 24","Counts/Channel 24","Micron Size 25","Counts/Channel 25","Micron Size 26","Counts/Channel 26","Micron Size 27","Counts/Channel 27","Micron Size 28","Counts/Channel 28","Micron Size 29","Counts/Channel 29","Micron Size 30","Counts/Channel 30","Micron Size 31","Counts/Channel 31"
"03/07/08","10:00:02",5404.000,"cc",28328.404,6.00,6,0.100,3587.000,0.200,945.000,0.300,512.000,0.500,320.000,1.000,40.000,5.000,0
"03/07/08","10:00:08",5966.000,"cc",28381.869,6.00,6,0.100,3842.000,0.200,1051.000,0.300,587.000,0.500,418.000,1.000,68.000,5.000,0
"03/07/08","10:00:14",8258.000,"cc",28263.197,6.00,6,0.100,5180.000,0.200,1520.000,0.300,874.000,0.500,599.000,1.000,85.000,5.000,0
"03/07/08","10:00:20",6027.000,"cc",28218.037,6.00,6,0.100,3853.000,0.200,1042.000,0.300,623.000,0.500,440.000,1.000,69.000,5.000,0
"03/07/08","10:00:26",6534.000,"cc",28402.686,6.00,6,0.100,4120.000,0.200,1116.000,0.300,702.000,0.500,520.000,1.000,76.000,5.000,0
"03/07/08","10:00:32",5924.000,"cc",28369.330,6.00,6,0.100,3805.000,0.200,1018.000,0.300,582.000,0.500,460.000,1.000,59.000,5.000,0
"03/07/08","10:00:38",5760.000,"cc",28236.158,6.00,6,0.100,3735.000,0.200,983.000,0.300,555.000,0.500,431.000,1.000,56.000,5.000,0
"03/07/08","10:00:44",6109.000,"cc",28243.486,6.00,6,0.100,3895.000,0.200,1048.000,0.300,617.000,0.500,474.000,1.000,75.000,5.000,0
"03/07/08","10:00:50",6026.000,"cc",28350.762,6.00,6,0.100,3868.000,0.200,1061.000,0.300,596.000,0.500,429.000,1.000,72.000,5.000,0
"03/07/08","10:00:56",6496.000,"cc",28308.475,6.00,6,0.100,4006.000,0.200,1153.000,0.300,738.000,0.500,538.000,1.000,61.000,5.000,0
"03/07/08","10:01:02",6113.000,"cc",28409.311,6.00,6,0.100,3870.000,0.200,1047.000,0.300,642.000,0.500,466.000,1.000,88.000,5.000,0
"03/07/08","10:01:08",6636.000,"cc",28366.334,6.00,6,0.100,4175.000,0.200,1153.000,0.300,682.000,0.500,529.000,1.000,97.000,5.000,0
"03/07/08","10:01:14",6009.000,"cc",28268.236,6.00,6,0.100,3780.000,0.200,1012.000,0.300,645.000,0.500,490.000,1.000,82.000,5.000,0
"03/07/08","10:01:20",5837.000,"cc",28248.373,6.00,6,0.100,3759.000,0.200,972.000,0.300,600.000,0.500,439.000,1.000,67.000,5.000,0
"03/07/08","10:01:26",8184.000,"cc",28278.717,6.00,6,0.100,4839.000,0.200,1415.000,0.300,1014.000,0.500,787.000,1.000,129.000,5.000,0
"03/07/08","10:01:32",6431.000,"cc",28373.668,6.00,6,0.100,4007.000,0.200,1126.000,0.300,689.000,0.500,524.000,1.000,85.000,5.000,0
"03/07/08","10:01:38",6824.000,"cc",28344.557,6.00,6,0.100,4172.000,0.200,1141.000,0.300,798.000,0.500,604.000,1.000,109.000,5.000,0
"03/07/08","10:01:44",5946.000,"cc",28416.268,6.00,6,0.100,3788.000,0.200,1024.000,0.300,594.000,0.500,472.000,1.000,68.000,5.000,0
"03/07/08","10:01:50",6489.000,"cc",28294.830,6.00,6,0.100,4046.000,0.200,1141.000,0.300,673.000,0.500,549.000,1.000,80.000,5.000,0
"03/07/08","10:01:56",6884.000,"cc",28333.160,6.00,6,0.100,4249.000,0.200,1257.000,0.300,753.000,0.500,528.000,1.000,97.000,5.000,0
"03/07/08","10:02:02",6602.000,"cc",28321.055,6.00,6,0.100,4162.000,0.200,1135.000,0.300,693.000,0.500,525.000,1.000,87.000,5.000,0
"03/07/08","10:02:08",6538.000,"cc",28263.104,6.00,6,0.100,4105.000,0.200,1097.000,0.300,707.000,0.500,547.000,1.000,82.000,5.000,0
"03/07/08","10:02:14",6517.000,"cc",28392.330,6.00,6,0.100,4116.000,0.200,1134.000,0.300,656.000,0.500,523.000,1.000,88.000,5.000,0
"03/07/08","10:02:20",6801.000,"cc",28289.762,6.00,6,0.100,4244.000,0.200,1210.000,0.300,689.000,0.500,567.000,1.000,91.000,5.000,0
"03/07/08","10:02:26",5987.000,"cc",28342.273,6.00,6,0.100,3925.000,0.200,1030.000,0.300,544.000,0.500,422.000,1.000,66.000,5.000,0
"03/07/08","10:02:32",6866.000,"cc",28326.352,6.00,6,0.100,4341.000,0.200,1149.000,0.300,722.000,0.500,570.000,1.000,84.000,5.000,0
"03/07/08","10:02:38",6437.000,"cc",28284.303,6.00,6,0.100,4062.000,0.200,1155.000,0.300,664.000,0.500,491.000,1.000,65.000,5.000,0
"03/07/08","10:02:44",6823.000,"cc",28275.482,6.00,6,0.100,4278.000,0.200,1206.000,0.300,740.000,0.500,527.000,1.000,72.000,5.000,0
"03/07/08","10:02:50",6146.000,"cc",28337.762,6.00,6,0.100,3964.000,0.200,1073.000,0.300,608.000,0.500,446.000,1.000,55.000,5.000,0
"03/07/08","10:02:56",6711.000,"cc",28304.736,6.00,6,0.100,4372.000,0.200,1143.000,0.300,666.000,0.500,476.000,1.000,54.000,5.000,0
"03/07/08","10:03:02",6788.000,"cc",28179.307,6.00,6,0.100,4380.000,0.200,1207.000,0.300,722.000,0.500,432.000,1.000,47.000,5.000,0
"03/07/08","10:03:08",6559.000,"cc",28404.979,6.00,6,0.100,4332.000,0.200,1134.000,0.300,619.000,0.500,419.000,1.000,55.000,5.000,0
"03/07/08","10:03:14",6040.000,"cc",28411.543,6.00,6,0.100,4051.000,0.200,1049.000,0.300,558.000,0.500,339.000,1.000,43.000,5.000,0
"03/07/08","10:03:20",6859.000,"cc",28306.102,6.00,6,0.100,4430.000,0.200,1245.000,0.300,678.000,0.500,461.000,1.000,45.000,5.000,0
"03/07/08","10:03:26",5988.000,"cc",28359.252,6.00,6,0.100,3886.000,0.200,1078.000,0.300,604.000,0.500,377.000,1.000,43.000,5.000,0
"03/07/08","10:03:32",6905.000,"cc",28209.510,6.00,6,0.100,4476.000,0.200,1254.000,0.300,679.000,0.500,453.000,1.000,43.000,5.000,0
"03/07/08","10:03:38",7197.000,"cc",28273.711,6.00,6,0.100,4726.000,0.200,1221.000,0.300,716.000,0.500,485.000,1.000,49.000,5.000,0
"03/07/08","10:03:44",6173.000,"cc",28352.266,6.00,6,0.100,4094.000,0.200,1090.000,0.300,570.000,0.500,377.000,1.000,42.000,5.000,0
"03/07/08","10:03:50",6447.000,"cc",28266.514,6.00,6,0.100,4218.000,0.200,1167.000,0.300,595.000,0.500,435.000,1.000,32.000,5.000,0
"03/07/08","10:03:56",6585.000,"cc",28360.557,6.00,6,0.100,4336.000,0.200,1207.000,0.300,643.000,0.500,367.000,1.000,32.000,5.000,0
"03/07/08","10:04:02",6303.000,"cc",28306.211,6.00,6,0.100,4121.000,0.200,1124.000,0.300,607.000,0.500,396.000,1.000,55.000,5.000,0
"03/07/08","10:04:08",7271.000,"cc",28349.268,6.00,6,0.100,4790.000,0.200,1386.000,0.300,677.000,0.500,374.000,1.000,44.000,5.000,0
"03/07/08","10:04:14",6837.000,"cc",28370.283,6.00,6,0.100,4526.000,0.200,1227.000,0.300,655.000,0.500,391.000,1.000,38.000,5.000,0
"03/07/08","10:04:20",6515.000,"cc",28363.270,6.00,6,0.100,4409.000,0.200,1174.000,0.300,559.000,0.500,341.000,1.000,32.000,5.000,0
"03/07/08","10:04:26",6091.000,"cc",28380.508,6.00,6,0.100,4243.000,0.200,1103.000,0.300,503.000,0.500,230.000,1.000,12.000,5.000,0
"03/07/08","10:04:32",6209.000,"cc",28250.561,6.00,6,0.100,4268.000,0.200,1131.000,0.300,529.000,0.500,266.000,1.000,15.000,5.000,0
"03/07/08","10:04:38",6415.000,"cc",28330.943,6.00,6,0.100,4359.000,0.200,1140.000,0.300,594.000,0.500,294.000,1.000,28.000,5.000,0
"03/07/08","10:04:44",6197.000,"cc",28290.848,6.00,6,0.100,4299.000,0.200,1129.000,0.300,511.000,0.500,234.000,1.000,24.000,5.000,0
"03/07/08","10:04:50",6312.000,"cc",28201.141,6.00,6,0.100,4305.000,0.200,1174.000,0.300,556.000,0.500,262.000,1.000,15.000,5.000,0
"03/07/08","10:04:56",8436.000,"cc",28381.285,6.00,6,0.100,5576.000,0.200,1622.000,0.300,818.000,0.500,377.000,1.000,43.000,5.000,0
"03/07/08","10:05:02",7670.000,"cc",28339.766,6.00,6,0.100,5207.000,0.200,1396.000,0.300,716.000,0.500,308.000,1.000,43.000,5.000,0
"03/07/08","10:05:08",6507.000,"cc",28353.416,6.00,6,0.100,4452.000,0.200,1183.000,0.300,599.000,0.500,242.000,1.000,31.000,5.000,0
"03/07/08","10:05:14",6151.000,"cc",28361.166,6.00,6,0.100,4357.000,0.200,1052.000,0.300,489.000,0.500,237.000,1.000,16.000,5.000,0
"03/07/08","10:05:20",5551.000,"cc",28247.008,6.00,6,0.100,3990.000,0.200,978.000,0.300,410.000,0.500,164.000,1.000,9.000,5.000,0
"03/07/08","10:05:26",6420.000,"cc",28283.535,6.00,6,0.100,4500.000,0.200,1148.000,0.300,519.000,0.500,232.000,1.000,21.000,5.000,0
"03/07/08","10:05:32",6586.000,"cc",28339.389,6.00,6,0.100,4586.000,0.200,1173.000,0.300,539.000,0.500,269.000,1.000,19.000,5.000,0
"03/07/08","10:05:38",6285.000,"cc",28339.672,6.00,6,0.100,4447.000,0.200,1115.000,0.300,469.000,0.500,236.000,1.000,18.000,5.000,0
"03/07/08","10:05:44",6347.000,"cc",28399.633,6.00,6,0.100,4478.000,0.200,1153.000,0.300,486.000,0.500,216.000,1.000,14.000,5.000,0
"03/07/08","10:05:50",6384.000,"cc",28402.172,6.00,6,0.100,4495.000,0.200,1120.000,0.300,510.000,0.500,246.000,1.000,13.000,5.000,0
"03/07/08","10:05:56",6303.000,"cc",28250.014,6.00,6,0.100,4462.000,0.200,1106.000,0.300,486.000,0.500,226.000,1.000,23.000,5.000,0
"03/07/08","10:06:02",6273.000,"cc",28342.273,6.00,6,0.100,4493.000,0.200,1102.000,0.300,479.000,0.500,183.000,1.000,16.000,5.000,0
"03/07/08","10:06:08",6624.000,"cc",28357.279,6.00,6,0.100,4624.000,0.200,1201.000,0.300,563.000,0.500,216.000,1.000,20.000,5.000,0
"03/07/08","10:06:14",6074.000,"cc",28414.268,6.00,6,0.100,4457.000,0.200,1046.000,0.300,423.000,0.500,138.000,1.000,10.000,5.000,0
"03/07/08","10:06:20",6139.000,"cc",28318.242,6.00,6,0.100,4403.000,0.200,1096.000,0.300,459.000,0.500,166.000,1.000,15.000,5.000,0
"03/07/08","10:06:26",6668.000,"cc",28286.268,6.00,6,0.100,4605.000,0.200,1175.000,0.300,564.000,0.500,293.000,1.000,31.000,5.000,0
"03/07/08","10:06:32",6838.000,"cc",28364.053,6.00,6,0.100,4782.000,0.200,1256.000,0.300,550.000,0.500,233.000,1.000,17.000,5.000,0
"03/07/08","10:06:38",6142.000,"cc",28275.125,6.00,6,0.100,4434.000,0.200,1062.000,0.300,450.000,0.500,178.000,1.000,18.000,5.000,0
"03/07/08","10:06:44",6501.000,"cc",28297.690,6.00,6,0.100,4673.000,0.200,1120.000,0.300,505.000,0.500,187.000,1.000,16.000,5.000,0
"03/07/08","10:06:50",6959.000,"cc",28304.420,6.00,6,0.100,4921.000,0.200,1227.000,0.300,553.000,0.500,243.000,1.000,15.000,5.000,0
"03/07/08","10:06:56",6514.000,"cc",28368.051,6.00,6,0.100,4633.000,0.200,1149.000,0.300,500.000,0.500,219.000,1.000,13.000,5.000,0
"03/07/08","10:07:02",5793.000,"cc",28418.678,6.00,6,0.100,4140.000,0.200,1011.000,0.300,425.000,0.500,196.000,1.000,21.000,5.000,0
"03/07/08","10:07:08",6060.000,"cc",28339.678,6.00,6,0.100,4335.000,0.200,1019.000,0.300,448.000,0.500,236.000,1.000,22.000,5.000,0
"03/07/08","10:07:14",6039.000,"cc",28333.238,6.00,6,0.100,4305.000,0.200,1036.000,0.300,454.000,0.500,227.000,1.000,17.000,5.000,0
"03/07/08","10:07:20",6677.000,"cc",28271.443,6.00,6,0.100,4720.000,0.200,1175.000,0.300,528.000,0.500,221.000,1.000,33.000,5.000,0
"03/07/08","10:07:26",5510.000,"cc",28353.848,6.00,6,0.100,3976.000,0.200,922.000,0.300,402.000,0.500,193.000,1.000,17.000,5.000,0
"03/07/08","10:07:32",5886.000,"cc",28283.670,6.00,6,0.100,4214.000,0.200,1001.000,0.300,446.000,0.500,209.000,1.000,16.000,5.000,0
"03/07/08","10:07:38",5924.000,"cc",28320.135,6.00,6,0.100,4203.000,0.200,1007.000,0.300,468.000,0.500,229.000,1.000,17.000,5.000,0
"03/07/08","10:07:44",5816.000,"cc",28291.127,6.00,6,0.100,4107.000,0.200,1000.000,0.300,440.000,0.500,240.000,1.000,29.000,5.000,0
"03/07/08","10:07:50",5311.000,"cc",28329.932,6.00,6,0.100,3837.000,0.200,904.000,0.300,390.000,0.500,168.000,1.000,12.000,5.000,0
"03/07/08","10:07:56",5735.000,"cc",28255.369,6.00,6,0.100,4044.000,0.200,971.000,0.300,447.000,0.500,252.000,1.000,21.000,5.000,0
"03/07/08","10:08:02",5087.000,"cc",28445.434,6.00,6,0.100,3609.000,0.200,909.000,0.300,372.000,0.500,184.000,1.000,13.000,5.000,0
"03/07/08","10:08:08",5364.000,"cc",28365.098,6.00,6,0.100,3749.000,0.200,942.000,0.300,422.000,0.500,233.000,1.000,18.000,5.000,0
"03/07/08","10:08:14",5159.000,"cc",28321.211,6.00,6,0.100,3669.000,0.200,866.000,0.300,387.000,0.500,221.000,1.000,16.000,5.000,0
"03/07/08","10:08:20",5194.000,"cc",28292.709,6.00,6,0.100,3667.000,0.200,898.000,0.300,437.000,0.500,178.000,1.000,14.000,5.000,0
"03/07/08","10:08:26",5496.000,"cc",28236.764,6.00,6,0.100,3887.000,0.200,919.000,0.300,427.000,0.500,239.000,1.000,24.000,5.000,0
"03/07/08","10:08:32",5350.000,"cc",28331.947,6.00,6,0.100,3793.000,0.200,863.000,0.300,464.000,0.500,204.000,1.000,26.000,5.000,0
"03/07/08","10:08:38",5040.000,"cc",28410.762,6.00,6,0.100,3608.000,0.200,827.000,0.300,396.000,0.500,180.000,1.000,29.000,5.000,0
"03/07/08","10:08:44",5134.000,"cc",28333.434,6.00,6,0.100,3545.000,0.200,896.000,0.300,422.000,0.500,243.000,1.000,28.000,5.000,0
"03/07/08","10:08:50",5048.000,"cc",28372.328,6.00,6,0.100,3572.000,0.200,807.000,0.300,444.000,0.500,200.000,1.000,25.000,5.000,0
"03/07/08","10:08:56",5101.000,"cc",28261.588,6.00,6,0.100,3614.000,0.200,805.000,0.300,416.000,0.500,242.000,1.000,24.000,5.000,0
"03/07/08","10:09:02",4874.000,"cc",28335.701,6.00,6,0.100,3442.000,0.200,810.000,0.300,398.000,0.500,203.000,1.000,21.000,5.000,0
"03/07/08","10:09:08",5169.000,"cc",28252.066,6.00,6,0.100,3646.000,0.200,831.000,0.300,448.000,0.500,227.000,1.000,17.000,5.000,0
"03/07/08","10:09:14",5149.000,"cc",28307.057,6.00,6,0.100,3658.000,0.200,850.000,0.300,412.000,0.500,210.000,1.000,19.000,5.000,0
"03/07/08","10:09:20",5342.000,"cc",28288.113,6.00,6,0.100,3762.000,0.200,876.000,0.300,470.000,0.500,212.000,1.000,22.000,5.000,0
"03/07/08","10:09:26",5038.000,"cc",28314.531,6.00,6,0.100,3488.000,0.200,875.000,0.300,418.000,0.500,235.000,1.000,22.000,5.000,0
"03/07/08","10:09:32",5134.000,"cc",28348.164,6.00,6,0.100,3571.000,0.200,841.000,0.300,484.000,0.500,212.000,1.000,26.000,5.000,0
"03/07/08","10:09:38",4919.000,"cc",28245.600,6.00,6,0.100,3451.000,0.200,823.000,0.300,409.000,0.500,214.000,1.000,22.000,5.000,0
"03/07/08","10:09:44",5113.000,"cc",28287.773,6.00,6,0.100,3553.000,0.200,864.000,0.300,443.000,0.500,231.000,1.000,22.000,5.000,0
"03/07/08","10:09:50",4966.000,"cc",28302.371,6.00,6,0.100,3525.000,0.200,815.000,0.300,398.000,0.500,203.000,1.000,25.000,5.000,0
"03/07/08","10:09:56",4933.000,"cc",28341.141,6.00,6,0.100,3474.000,0.200,803.000,0.300,417.000,0.500,212.000,1.000,27.000,5.000,0
"03/07/08","10:10:02",4813.000,"cc",28368.861,6.00,6,0.100,3353.000,0.200,835.000,0.300,407.000,0.500,202.000,1.000,16.000,5.000,0
"03/07/08","10:10:08",5082.000,"cc",28299.940,6.00,6,0.100,3610.000,0.200,823.000,0.300,400.000,0.500,224.000,1.000,25.000,5.000,0
"03/07/08","10:10:14",4850.000,"cc",28324.844,6.00,6,0.100,3449.000,0.200,792.000,0.300,376.000,0.500,213.000,1.000,20.000,5.000,0
"03/07/08","10:10:20",4666.000,"cc",28199.908,6.00,6,0.100,3335.000,0.200,736.000,0.300,376.000,0.500,205.000,1.000,14.000,5.000,0
"03/07/08","10:10:26",4779.000,"cc",28309.473,6.00,6,0.100,3373.000,0.200,835.000,0.300,376.000,0.500,181.000,1.000,14.000,5.000,0
"03/07/08","10:10:32",5127.000,"cc",28278.025,6.00,6,0.100,3643.000,0.200,879.000,0.300,422.000,0.500,172.000,1.000,11.000,5.000,0
"03/07/08","10:10:38",5081.000,"cc",28230.014,6.00,6,0.100,3563.000,0.200,842.000,0.300,449.000,0.500,211.000,1.000,16.000,5.000,0
"03/07/08","10:10:44",5285.000,"cc",28271.404,6.00,6,0.100,3759.000,0.200,856.000,0.300,420.000,0.500,234.000,1.000,16.000,5.000,0
"03/07/08","10:10:50",5418.000,"cc",28175.945,6.00,6,0.100,3807.000,0.200,945.000,0.300,434.000,0.500,211.000,1.000,21.000,5.000,0
"03/07/08","10:10:56",5269.000,"cc",28332.604,6.00,6,0.100,3749.000,0.200,896.000,0.300,392.000,0.500,218.000,1.000,14.000,5.000,0
"03/07/08","10:11:02",5403.000,"cc",28310.621,6.00,6,0.100,3783.000,0.200,905.000,0.300,437.000,0.500,254.000,1.000,24.000,5.000,0
"03/07/08","10:11:08",5112.000,"cc",28230.133,6.00,6,0.100,3539.000,0.200,834.000,0.300,455.000,0.500,250.000,1.000,34.000,5.000,0
"03/07/08","10:11:14",5204.000,"cc",28293.565,6.00,6,0.100,3679.000,0.200,892.000,0.300,404.000,0.500,211.000,1.000,18.000,5.000,0
"03/07/08","10:11:20",5136.000,"cc",28243.256,6.00,6,0.100,3723.000,0.200,865.000,0.300,361.000,0.500,177.000,1.000,10.000,5.000,0
"03/07/08","10:11:26",5667.000,"cc",28277.760,6.00,6,0.100,3965.000,0.200,985.000,0.300,453.000,0.500,242.000,1.000,22.000,5.000,0
"03/07/08","10:11:32",5294.000,"cc",28269.967,6.00,6,0.100,3752.000,0.200,888.000,0.300,407.000,0.500,224.000,1.000,23.000,5.000,0
"03/07/08","10:11:38",4994.000,"cc",28226.781,6.00,6,0.100,3583.000,0.200,862.000,0.300,372.000,0.500,166.000,1.000,11.000,5.000,0
"03/07/08","10:11:44",4956.000,"cc",28303.633,6.00,6,0.100,3656.000,0.200,812.000,0.300,330.000,0.500,147.000,1.000,11.000,5.000,0
"03/07/08","10:11:50",5387.000,"cc",28266.227,6.00,6,0.100,3933.000,0.200,818.000,0.300,399.000,0.500,225.000,1.000,12.000,5.000,0
"03/07/08","10:11:56",5353.000,"cc",28328.912,6.00,6,0.100,3856.000,0.200,841.000,0.300,422.000,0.500,214.000,1.000,20.000,5.000,0
"03/07/08","10:12:02",5471.000,"cc",28299.004,6.00,6,0.100,3932.000,0.200,892.000,0.300,417.000,0.500,198.000,1.000,32.000,5.000,0
"03/07/08","10:12:08",5661.000,"cc",28333.188,6.00,6,0.100,4023.000,0.200,912.000,0.300,430.000,0.500,271.000,1.000,25.000,5.000,0
"03/07/08","10:12:14",4982.000,"cc",28331.363,6.00,6,0.100,3561.000,0.200,768.000,0.300,375.000,0.500,249.000,1.000,29.000,5.000,0
"03/07/08","10:12:20",5574.000,"cc",28316.783,6.00,6,0.100,3940.000,0.200,933.000,0.300,417.000,0.500,259.000,1.000,25.000,5.000,0
"03/07/08","10:12:26",5339.000,"cc",28423.102,6.00,6,0.100,3833.000,0.200,869.000,0.300,403.000,0.500,208.000,1.000,26.000,5.000,0
"03/07/08","10:12:32",4507.000,"cc",28430.035,6.00,6,0.100,3365.000,0.200,721.000,0.300,295.000,0.500,114.000,1.000,12.000,5.000,0
"03/07/08","10:12:38",5156.000,"cc",28276.395,6.00,6,0.100,3761.000,0.200,850.000,0.300,383.000,0.500,154.000,1.000,8.000,5.000,0
"03/07/08","10:12:44",5580.000,"cc",28407.943,6.00,6,0.100,4047.000,0.200,870.000,0.300,449.000,0.500,203.000,1.000,11.000,5.000,0
"03/07/08","10:12:50",5593.000,"cc",28264.398,6.00,6,0.100,4012.000,0.200,926.000,0.300,441.000,0.500,201.000,1.000,13.000,5.000,0
"03/07/08","10:12:56",5425.000,"cc",28312.904,6.00,6,0.100,3874.000,0.200,906.000,0.300,440.000,0.500,198.000,1.000,7.000,5.000,0
"03/07/08","10:13:02",5831.000,"cc",28313.422,6.00,6,0.100,4160.000,0.200,969.000,0.300,422.000,0.500,261.000,1.000,19.000,5.000,0
"03/07/08","10:13:08",5749.000,"cc",28308.023,6.00,6,0.100,4103.000,0.200,909.000,0.300,441.000,0.500,274.000,1.000,22.000,5.000,0
"03/07/08","10:13:14",5769.000,"cc",28423.981,6.00,6,0.100,4095.000,0.200,974.000,0.300,424.000,0.500,238.000,1.000,38.000,5.000,0
"03/07/08","10:13:20",5477.000,"cc",28344.383,6.00,6,0.100,3963.000,0.200,856.000,0.300,411.000,0.500,223.000,1.000,24.000,5.000,0
"03/07/08","10:13:26",5148.000,"cc",28307.582,6.00,6,0.100,3768.000,0.200,840.000,0.300,385.000,0.500,145.000,1.000,10.000,5.000,0
"03/07/08","10:13:32",5557.000,"cc",28222.320,6.00,6,0.100,4056.000,0.200,912.000,0.300,408.000,0.500,171.000,1.000,10.000,5.000,0
"03/07/08","10:13:38",5649.000,"cc",28224.674,6.00,6,0.100,4063.000,0.200,942.000,0.300,424.000,0.500,202.000,1.000,18.000,5.000,0
"03/07/08","10:13:44",5827.000,"cc",28360.670,6.00,6,0.100,4154.000,0.200,997.000,0.300,428.000,0.500,227.000,1.000,21.000,5.000,0
"03/07/08","10:13:50",5588.000,"cc",28322.664,6.00,6,0.100,4161.000,0.200,841.000,0.300,415.000,0.500,160.000,1.000,11.000,5.000,0
"03/07/08","10:13:56",5499.000,"cc",28315.365,6.00,6,0.100,4101.000,0.200,834.000,0.300,378.000,0.500,168.000,1.000,18.000,5.000,0
"03/07/08","10:14:02",5833.000,"cc",28257.197,6.00,6,0.100,4163.000,0.200,995.000,0.300,423.000,0.500,231.000,1.000,21.000,5.000,0
"03/07/08","10:14:08",5947.000,"cc",28298.842,6.00,6,0.100,4281.000,0.200,928.000,0.300,486.000,0.500,229.000,1.000,23.000,5.000,0
"03/07/08","10:14:14",5692.000,"cc",28457.871,6.00,6,0.100,4101.000,0.200,966.000,0.300,413.000,0.500,192.000,1.000,20.000,5.000,0
"03/07/08","10:14:20",4999.000,"cc",28369.932,6.00,6,0.100,3636.000,0.200,771.000,0.300,368.000,0.500,202.000,1.000,22.000,5.000,0
"03/07/08","10:14:26",5258.000,"cc",28332.850,6.00,6,0.100,3813.000,0.200,838.000,0.300,367.000,0.500,221.000,1.000,19.000,5.000,0
"03/07/08","10:14:32",4675.000,"cc",28331.158,6.00,6,0.100,3474.000,0.200,744.000,0.300,313.000,0.500,138.000,1.000,6.000,5.000,0
"03/07/08","10:14:38",5212.000,"cc",28311.852,6.00,6,0.100,3811.000,0.200,793.000,0.300,381.000,0.500,203.000,1.000,24.000,5.000,0
"03/07/08","10:14:44",5200.000,"cc",28277.928,6.00,6,0.100,3785.000,0.200,849.000,0.300,374.000,0.500,184.000,1.000,8.000,5.000,0
"03/07/08","10:14:50",5761.000,"cc",28254.805,6.00,6,0.100,4062.000,0.200,1014.000,0.300,442.000,0.500,226.000,1.000,17.000,5.000,0
"03/07/08","10:14:56",5103.000,"cc",28372.113,6.00,6,0.100,3715.000,0.200,824.000,0.300,365.000,0.500,177.000,1.000,22.000,5.000,0
"03/07/08","10:15:02",4821.000,"cc",28352.203,6.00,6,0.100,3572.000,0.200,731.000,0.300,322.000,0.500,190.000,1.000,6.000,5.000,0
"03/07/08","10:15:08",5186.000,"cc",28316.518,6.00,6,0.100,3823.000,0.200,793.000,0.300,379.000,0.500,177.000,1.000,14.000,5.000,0
"03/07/08","10:15:14",5010.000,"cc",28310.356,6.00,6,0.100,3744.000,0.200,753.000,0.300,351.000,0.500,152.000,1.000,10.000,5.000,0
"03/07/08","10:15:20",5116.000,"cc",28330.926,6.00,6,0.100,3717.000,0.200,843.000,0.300,377.000,0.500,165.000,1.000,14.000,5.000,0
"03/07/08","10:15:26",5197.000,"cc",28266.834,6.00,6,0.100,3881.000,0.200,808.000,0.300,339.000,0.500,160.000,1.000,9.000,5.000,0
"03/07/08","10:15:32",4881.000,"cc",28310.027,6.00,6,0.100,3649.000,0.200,781.000,0.300,331.000,0.500,111.000,1.000,9.000,5.000,0
"03/07/08","10:15:38",4897.000,"cc",28328.760,6.00,6,0.100,3754.000,0.200,744.000,0.300,295.000,0.500,99.000,1.000,5.000,5.000,0
"03/07/08","10:15:44",5171.000,"cc",28256.080,6.00,6,0.100,3915.000,0.200,767.000,0.300,339.000,0.500,139.000,1.000,11.000,5.000,0
"03/07/08","10:15:50",5112.000,"cc",28226.459,6.00,6,0.100,3873.000,0.200,806.000,0.300,322.000,0.500,105.000,1.000,6.000,5.000,0
"03/07/08","10:15:56",4921.000,"cc",28411.922,6.00,6,0.100,3694.000,0.200,795.000,0.300,318.000,0.500,111.000,1.000,3.000,5.000,0
"03/07/08","10:16:02",5167.000,"cc",28256.402,6.00,6,0.100,3926.000,0.200,785.000,0.300,333.000,0.500,117.000,1.000,6.000,5.000,0
"03/07/08","10:16:08",5287.000,"cc",28267.244,6.00,6,0.100,3942.000,0.200,812.000,0.300,380.000,0.500,145.000,1.000,8.000,5.000,0
"03/07/08","10:16:14",5357.000,"cc",28295.342,6.00,6,0.100,4013.000,0.200,835.000,0.300,330.000,0.500,168.000,1.000,11.000,5.000,0
"03/07/08","10:16:20",4750.000,"cc",28331.520,6.00,6,0.100,3593.000,0.200,738.000,0.300,312.000,0.500,97.000,1.000,10.000,5.000,0
"03/07/08","10:16:26",4921.000,"cc",28406.600,6.00,6,0.100,3764.000,0.200,738.000,0.300,318.000,0.500,100.000,1.000,1.000,5.000,0
"03/07/08","10:16:32",4920.000,"cc",28353.096,6.00,6,0.100,3755.000,0.200,790.000,0.300,293.000,0.500,82.000,1.000,0,5.000,0
"03/07/08","10:16:38",4436.000,"cc",28217.012,6.00,6,0.100,3363.000,0.200,704.000,0.300,276.000,0.500,87.000,1.000,6.000,5.000,0
"03/07/08","10:16:44",4580.000,"cc",28316.910,6.00,6,0.100,3435.000,0.200,739.000,0.300,309.000,0.500,92.000,1.000,5.000,5.000,0
"03/07/08","10:16:50",4850.000,"cc",28336.738,6.00,6,0.100,3700.000,0.200,737.000,0.300,288.000,0.500,115.000,1.000,10.000,5.000,0
"03/07/08","10:16:56",4567.000,"cc",28370.830,6.00,6,0.100,3500.000,0.200,731.000,0.300,258.000,0.500,74.000,1.000,4.000,5.000,0
"03/07/08","10:17:02",4697.000,"cc",28272.940,6.00,6,0.100,3494.000,0.200,723.000,0.300,347.000,0.500,128.000,1.000,5.000,5.000,0